Location: Newark
(13.6797°N, 8.5297°E)
Time: 17:45:54
(UTC+00:00)

A-11 Canister half - Pass Details

Date: 25 January 2020
Orbit: 1517 x 1683 km, 47.2° (Epoch: 21 February)

Event Time Altitude Azimuth Distance (km) Brightness Sun altitude
Rises 09:14:29 0° 285° (WNW) 4,716 11.2 41.8°
Reaches altitude 10° 09:19:20 10° 264° (W) 3,763 10.9 42.7°
Maximum altitude 09:24:14 15° 232° (SW) 3,400 10.9 43.6°
Drops below altitude 10° 09:29:14 10° 200° (SSW) 3,832 11.5 44.4°
Sets 09:34:21 0° 179° (S) 4,852 12.1 45.3°
